ZSHCZSQD

Guest
Details From ZSHC - XIAOSHAN
To ZSQD - LIUTING
Flight Number -
Tags decoded
Created
Modified
Stats Distance 414 nm / 767 km
Max Altitude 0 ft / 0 m
Waypoints 7
Social Downloads 1
Likes 0
Share VATSIM

Download

Looking for another format? Having issues loading an existing format? Contact us
Advertisement - Login to hide

Notes

Requested: ZSHC AND G204 JTN W116 PK V3 ODULO B221 IDVEL ZSQD Unmatched points: W116 V3 B221

Route

ZSHC AND G204 JTN PK ODULO IDVEL ZSQD

ID Type Via Altitude Latitude Longitude Leg Dist Tot Dist Heading (true) Name
O ZSHC APT - 0 ft / 0 m 30.22950˚ 120.43445˚ - 0 nm - XIAOSHAN
AND VOR - 0 ft / 0 m 30.25333˚ 121.21833˚ 40 nm 40 nm 88° / 88° ANDONG VOR-DME
JTN VOR G204 (AWY-HI) 0 ft / 0 m 31.12500˚ 121.34000˚ 52 nm 93 nm 7° / 7° JIUTING VOR-DME
PK NDB - 0 ft / 0 m 31.28667˚ 121.33000˚ 9 nm 103 nm 357° / 357° NANXIANG NDB
ODULO FIX - 0 ft / 0 m 33.16667˚ 121.62833˚ 113 nm 217 nm 8° / 8° -
IDVEL FIX - 0 ft / 0 m 35.34667˚ 120.54833˚ 141 nm 358 nm 338° / 337° -
O ZSQD APT - 0 ft / 0 m 36.26611˚ 120.37443˚ 55 nm 414 nm 351° / 351° LIUTING

Altitude Profile

Advertisement - Login to hide

Weather


0- 5 10 15 20 25 30 35+ Temperature / ° C

Clouds and Precipitation
Forecast for 2017-12-18 00:00 UTC. Updated 15 minutes ago

Ground ~20,000 ft ~40,000 ft Winds

ZSHC

Details ICAO ZSHC (HGH)
Name XIAOSHAN
Region China
Timezone Asia/Shanghai (UTC+8.0)
Stats Elevation 23 ft / 7 m (AMSL)
Location 30.229504° 120.434453°
Runways 1
Magnetic Variation 5.533° W

METAR

ZSHC 172330Z 22002MPS 6000 NSC M01/M04 Q1034 NOSIG

Decode

TAF

Not found

Departure Runways

ID Width Length Bearing (true) Bearing (mag) Surface Threshold Offset Overrun Length
07 148 ft / 45 m 11,803 ft / 3,598 m 62.82° 68.35° Concrete 0 ft / 0 m 200 ft / 61 m
25 148 ft / 45 m 11,803 ft / 3,598 m 242.84° 248.37° Concrete 0 ft / 0 m 200 ft / 61 m

ZSQD

Details ICAO ZSQD (TAO)
Name LIUTING
Region China
Timezone Asia/Shanghai (UTC+8.0)
Stats Elevation 33 ft / 10 m (AMSL)
Location 36.266107° 120.374435°
Runways 1
Magnetic Variation 6.996° W

METAR

ZSQD 172300Z 13001MPS CAVOK M05/M10 Q1029 NOSIG

Decode

TAF

Not found

Destination Runways

ID Width Length Bearing (true) Bearing (mag) Surface Threshold Offset Overrun Length
17 148 ft / 45 m 11,211 ft / 3,417 m 165.61° 172.61° Concrete 0 ft / 0 m 200 ft / 61 m
35 148 ft / 45 m 11,211 ft / 3,417 m 345.61° 352.61° Concrete 0 ft / 0 m 200 ft / 61 m

Approach Navaids

Runway Type Ident Frequency Range Bearing (true) Bearing (mag) Slope Elevation
17 Localiser INX 110.70 MHz 18 nm / 33 km 165.54° 172.54° - 33 ft / 10 m (AMSL)
17 Glidescope INX 110.70 MHz 10 nm / 19 km 165.61° 172.61° 3.00° 33 ft / 10 m (AMSL)
17 DME INX 110.70 MHz 18 nm / 33 km - - - 33 ft / 10 m (AMSL)
35 Localiser IPP 111.70 MHz 18 nm / 33 km 345.54° 352.53° - 33 ft / 10 m (AMSL)
35 Glidescope IPP 111.70 MHz 10 nm / 19 km 345.61° 352.61° 3.00° 33 ft / 10 m (AMSL)

Popular Alternatives